Flag for Austria Weather past 2 weeks in Stockerau, Lower Austria, Austria

Now
61 °F

Passing clouds.


Feels Like: 61 °F
Forecast: 55 / 85 °F
Wind: 2 mph from Southwest

Location: Tulln Airport

Current Time: Jul 25, 2014 at 6:20:20 AM

Latest Report: Jul 25, 2014 at 5:50 AM


Visibility: 15 mi

Pressure: 29.92 "Hg

Humidity: 88%

Dew point: 57 °F

Location of StockerauLocation

Historic Weather in Stockerau — Graph

°F

Stockerau temperature yesterday

Maximum temperature yesterday: 81 °F (at 1:50 PM)
Minimum temperature yesterday: 57 °F (at 5:50 AM)
Average temperature yesterday: 72 °F

Past Weeks' High & Low Weather Summary

 TemperatureHumidityPressure
High91 °F (Jul 20, 1:50 PM)100% (Jul 10, 12:50 PM)30.15 "Hg (Jul 10, 12:50 PM)
Low50 °F (Jul 10, 12:50 PM)33% (Jul 18, 2:50 PM)29.74 "Hg (Jul 11, 2:50 PM)
Average73 °F66%29.93 "Hg
* Reported Jul 10 5:50 AM — Jul 24 10:50 PM, Stockerau, Weather by CustomWeather, © 2014

Note: Actual official high and low records may vary slightly from our data, if they occured in-between our weather recording intervals... More about our weather records

Advertising

Stockerau weather history for previous 24 hours

 ConditionsComfort  
Time TempWeatherWind HumidityBarometerVisibility
10:50 PM
Jul 24
66 °FPassing clouds.3 mph83%29.89 "Hg25 mi
9:50 PM68 °FPassing clouds.1 mph73%29.89 "Hg25 mi
8:50 PM70 °FPassing clouds.6 mph73%29.86 "Hg25 mi
7:50 PM75 °FScattered clouds.3 mph57%29.86 "Hg31 mi
6:50 PM77 °FScattered clouds.2 mph54%29.86 "Hg31 mi
5:50 PM81 °FScattered clouds.6 mph42%29.83 "Hg31 mi
4:50 PM81 °FScattered clouds.3 mph42%29.83 "Hg31 mi
3:50 PM79 °FScattered clouds.5 mph48%29.86 "Hg31 mi
2:50 PM81 °FBroken clouds.6 mph45%29.86 "Hg25 mi
1:50 PM81 °FScattered clouds.3 mph48%29.86 "Hg25 mi
12:50 PM77 °FScattered clouds.10 mph51%29.86 "Hg25 mi
11:50 AM75 °FPartly sunny.8 mph54%29.86 "Hg25 mi
10:50 AM73 °FPartly sunny.7 mph61%29.89 "Hg25 mi
9:50 AM72 °FScattered clouds.7 mph61%29.89 "Hg25 mi
8:50 AM68 °FPassing clouds.8 mph73%29.89 "Hg25 mi
7:50 AM63 °FPassing clouds.8 mph83%29.92 "Hg19 mi
6:50 AM59 °FPassing clouds.7 mph94%29.92 "Hg16 mi
Weather by CustomWeather, © 2014

See weather overviewHow to use our weather pages